Powrót do katalogu

STARLINK-35740

AktywnyŁącznośćVLEO
NORAD 66210·PAYLOAD·🇺🇸 United States

Wystrzelony Oct 28, 2025 z Vandenberg Space Force Base

Loading…

Następne Przeloty (najbliższe 24 godziny)

TLE

ŚwieżeSource: CelesTrak SupGP

Epoka: Sep 15, 2026, 03:31 UTC

1 66210C 25244E   26258.14701389 -.00021685  00000+0 -64068-3 0  2586
2 66210  53.1594  66.3969 0001574  52.5306  23.9219 15.34400867    16

Śledź STARLINK-35740 w czasie rzeczywistym z AllMySat

Download on the App Store